Regional Weather Roundup
Issued by NWS Charleston, SC

Current Version | Previous Version | Graphics & Text | Print | Product List | Glossary On
Versions: 1 2 3 4 5 6 7 8 9 10 11 12 13 14 15 16 17 18 19 20 21 22 23 24 25 26 27 28 29 30 31 32 33 34 35 36 37 38 39 40 41 42 43 44 45 46 47 48 49 50
000
ASUS42 KCHS 281125
RWRCHS

REGIONAL WEATHER ROUNDUP
NATIONAL WEATHER SERVICE CHARLESTON SC
600 AM EST FRI NOV 28 2014

NOTE: "FAIR" INDICATES FEW OR NO CLOUDS BELOW 12,000 FEET WITH NO
SIGNIFICANT WEATHER AND/OR OBSTRUCTIONS TO VISIBILITY.

NOT ALL STATIONS ARE QUALITY CONTROLLED BY THE NATIONAL
WEATHER SERVICE. USE DATA WITH CAUTION...ESPECIALLY
DEWPOINT OBSERVATIONS.

SCZ027-030-031-034>040-042>050-281200-
...SOUTHEAST SOUTH CAROLINA...

CITY           SKY/WX    TMP DP  RH WIND       PRES   REMARKS
N CHARLESTON   CLEAR     34  29  82 N7        30.34R WCI  28
WATERFRONT PRK   N/A     39 N/A N/A W16G23      N/A  WCI  30
MOUNT PLEASANT FAIR      36  30  80 N6        30.35R WCI  31
JOHNS ISLAND   SUNNY     37  32  81 N5        30.35R WCI  34
PINOPOLIS        N/A     41  30  65 NE17      30.25F
MONCKS CORNER  FAIR      39  30  70 N10G16    30.35R WCI  32
SUMMERVILLE    FAIR      34  32  93 N5        30.36S WCI  30
BEAUFORT MCAS  CLEAR     36  30  79 N9        30.34S WCI  29
BEAUFORT ARPT  FAIR      36  32  87 N8        30.34S WCI  29
HILTON HEAD IS NOT AVBL
WALTERBORO     SUNNY     32  32 100 N3        30.37R
ALLENDALE      FAIR      32  30  93 NW3       30.36R

...SOUTHERN MIDLANDS AND PEE DEE...

CITY           SKY/WX    TMP DP  RH WIND       PRES   REMARKS
GEORGETOWN     NOT AVBL
KINGSTREE      NOT AVBL
ORANGEBURG     CLEAR     33  25  72 N3        30.36R
BARNWELL         N/A     30  28  93 CALM      30.37R
AIKEN          FAIR      32  27  80 N3        30.38S
MANNING        NOT AVBL
COLUMBIA       CLEAR     34  23  64 NW5       30.35S WCI  30
SUMTER         CLEAR     30  26  86 NW3       30.33S
FLORENCE       CLEAR     31  25  78 N6        30.34R WCI  25
MYRTLE BEACH   CLEAR     36  27  69 NW8       30.34R WCI  29
N MYRTLE BEACH CLEAR     33  28  81 NW3       30.33R

$$

GAZ063-065-086>088-099>101-113>116-118-119-134>141-150-281200-
...SOUTHEAST GEORGIA...

CITY           SKY/WX    TMP DP  RH WIND       PRES   REMARKS
SAVANNAH ARPT  CLEAR     36  28  73 N7        30.35R WCI  30
HUNTER AAF     CLEAR     36  29  75 N9        30.33R WCI  29
FORT STEWART   CLEAR     35  29  76 NW8       30.34R WCI  29
STATESBORO     NOT AVBL
SYLVANIA       SUNNY     34  32  92 N3        30.37S
CLAXTON        FAIR      36  18  48 NW3       30.37R

...CSRA...CENTRAL AND FAR SOUTHEAST GEORGIA...

CITY           SKY/WX    TMP DP  RH WIND       PRES   REMARKS
THOMSON        CLEAR     28  28 100 CALM      30.41R
AUGUSTA-BUSH   CLEAR     27  25  92 CALM      30.38R
AUGUSTA-DANIEL CLEAR     33  27  78 NW3       30.36S
SWAINSBORO     FAIR      32  32 100 NW3       30.38R
VIDALIA        CLEAR     32  30  93 N5        30.36S WCI  27
HAZLEHURST     FAIR      34  31  88 N7        30.36S WCI  28
ALMA           CLEAR     34  28  79 N5        30.36R WCI  30
WAYCROSS       CLEAR     35  32  88 N5        30.36S WCI  31
JESUP          FAIR      37  32  81 N6        30.36S WCI  33
BAXLEY         FAIR      36  30  80 N6        30.36R WCI  31
BRUNSWICK      CLEAR     37  30  75 N7        30.36R WCI  32
SAINT SIMONS   CLEAR     38  29  70 N9        30.34R WCI  31

$$

SCZ027-028-034-036>038-045-046-048>050-GAZ119-141-281200-
...LAKE AND SUPPLEMENTAL COASTAL OBSERVATIONS...

STATION/POSITION TIME  TEMP    WIND        PRES    WAVE   SWELL
                       AIR SEA DIR/SP/G            HT/PER HT/PER/DIR
                 (UTC) (F)     (DEG/KT/KT) (MB)    (FT/S) (FT/S/D)
UPR LAKE MARION  NOT AVBL
WINYAH BAY       1100   35     340/  6     1027.0S
LAKE MURRAY      1000   32     320/  2/  4 1027.1R
ACE BASIN NERRS  1100   35     350/  2     1027.0S
FORT PULASKI     1100   37     330/ 10/ 12 1027.5R
SAPELO ISLAND    1100   37     340/  6     1027.0S

$$

ANZ835-935-AMZ111-154-330-350-352-354-370-450-454-472-281200-
...C-MAN AND BUOY OBSERVATIONS...

STATION/POSITION TIME  TEMP    WIND        PRES    WAVE   SWELL
                       AIR SEA DIR/SP/G            HT/PER HT/PER/DIR
                 (UTC) (F)     (DEG/KT/KT) (MB)    (FT/S) (FT/S/D)
FOLLY BEACH CMAN 1100   40     360/ 11/ 15 1027.8R
BUOY 41004       1100   48 72  360/ 19/ 25 1025.1R   6/ 6   2/ 9
BUOY 41008       1100   47 62   10/ 19/ 25 1026.3R   4/ 5
CAPERS NEARSHORE 1000   41      10/ 21/ 25   N/A
FRIPP NEARSHORE  NOT AVBL


STATION/POSITION TIME  TEMP    WIND        PRES    WAVE   SWELL
                       AIR SEA DIR/SP/G            HT/PER HT/PER/DIR
                 (UTC) (F)     (DEG/KT/KT) (MB)    (FT/S) (FT/S/D)
5E ST. MARYS GA  1100      61                N/A     5/ 5
FRYING PAN BUOY  1100   44 68  350/ 21/ 27 1025.4R   6/ 6   2/ 20/ 9
BUOY 41025       1100   45     310/ 19/ 25 1022.4R   6/ 4   3/ 50/ 8
CAPE LOOKOUT NC  1100   38     340/ 23/ 25 1024.4R
BUOY 41002       1044   58 73  330/ 27/ 31 1019.6R  10/ 9   2/100/13
BUOY 41010       1100   65 77  350/ 19/ 23 1021.1S   8/ 8   3/100/14
ST AUGUSTINE FL  1100   40     320/ 10/ 12 1026.7R


$$


USA.gov is the U.S. government's official web portal to all federal, state and local government web resources and services.